Location: Boca do Mato
(22.9085°S, 43.2930°W)
Time: 22:36:43
(UTC+00:00)

Cosmos 1818 - Pass Details

Date: 14 July 2020
Orbit: 777 x 796 km, 65.0° (Epoch: 10 August)

Event Time Altitude Azimuth Distance (km) Brightness Sun altitude
Rises 08:21:35 0° 342° (NNW) 3,268 6.8 -16.4°
Reaches altitude 10° 08:24:00 10° 344° (NNW) 2,343 6.0 -15.9°
Maximum altitude 08:29:22 71° 67° (ENE) 835 3.9 -14.7°
Drops below altitude 10° 08:34:45 10° 150° (SSE) 2,355 6.2 -13.5°
Sets 08:37:11 0° 152° (SSE) 3,286 6.9 -13.0°
